Weather History for Dayton Wright, OH

Change the Weather History Date:

Thursday, July 4, 2013

  Actual Average (KFFO) Record (KFFO)
Temperature  
Mean Temperature 70 °F -  
Max Temperature 71 °F 81 °F 99 °F (2012)
Min Temperature 68 °F 60 °F 50 °F (1996)
Cooling Degree Days 4    
Growing Degree Days 20 (Base 50)    
Moisture  
Dew Point 67 °F    
Average Humidity 92    
Maximum Humidity 96    
Minimum Humidity 88    
Precipitation  
Precipitation 1.86 in - - ()
Sea Level Pressure  
Sea Level Pressure 30.14 in    
Wind  
Wind Speed 6 mph (South)    
Max Wind Speed 14 mph    
Max Gust Speed 26 mph    
Visibility 6 miles    
Events Fog , Rain , Thunderstorm    
Averages and records for this station are not official NWS values.
T = Trace of Precipitation, MM = Missing Value Source: NWS Daily Summary

Daily Weather History Graph

Daily Weather History Graph

Search for Another Location

Airport:

Trip Planner

Search our weather history database for the weather conditions in past years. The results will help you decide how hot, cold, wet, or windy it might be!

Date:

Astronomy

Jul. 04, 2013 Rise Set
Actual Time 6:14 AM EDT 9:07 PM EDT
Civil Twilight 5:42 AM EDT 9:39 PM EDT
Nautical Twilight 5:01 AM EDT 10:20 PM EDT
Astronomical Twilight 4:14 AM EDT 11:07 PM EDT
Moon 3:30 AM EDT (7/4) 6:11 PM EDT (7/4)
Length of Visible Light 15h 57m
Length of Day
14h 52m
Waning Crescent, 11% of the Moon is Illuminated
Jul 4
Waning Crescent
Jul 8
New
Jul 15
First Quarter
Jul 22
Full
Jul 29
Last Quarter

Hourly Weather History & Observations

Time (EDT) Temp. Dew Point Humidity Pressure Visibility Wind Dir Wind Speed Gust Speed Precip Events Conditions
12:20 AM 69.8 °F 66.2 °F 88% 30.13 in 2.5 mi SSE 13.8 mph 26.5 mph 0.08 in Rain Heavy Rain
12:33 AM 69.8 °F 66.2 °F 88% 30.13 in 1.2 mi SSE 9.2 mph 23.0 mph 0.29 in Rain Heavy Rain
12:44 AM 69.8 °F 66.2 °F 88% 30.14 in 2.5 mi SSE 9.2 mph - 0.37 in Rain , Thunderstorm Heavy Rain
12:53 AM 68.0 °F 66.9 °F 96% 30.12 in 1.2 mi South 4.6 mph - 0.57 in Rain , Thunderstorm Heavy Rain
1:01 AM 68.0 °F 66.2 °F 94% 30.14 in 1.5 mi Calm Calm - 0.04 in Rain , Thunderstorm Rain
1:05 AM 68.0 °F 66.2 °F 94% 30.14 in 3.0 mi Calm Calm - 0.05 in Rain , Thunderstorm Light Rain
1:13 AM 68.0 °F 66.2 °F 94% 30.14 in 7.0 mi WNW 5.8 mph - 0.05 in   Overcast
1:26 AM 68.0 °F 66.2 °F 94% 30.14 in 1.5 mi WSW 10.4 mph - 0.20 in Rain Heavy Rain
1:32 AM 68.0 °F 66.2 °F 94% 30.13 in 0.5 mi WNW 4.6 mph - 0.45 in Fog , Rain Heavy Rain
1:37 AM 69.8 °F 66.2 °F 88% 30.14 in 1.0 mi South 5.8 mph - 0.45 in Rain Light Rain
1:44 AM 68.0 °F 66.2 °F 94% 30.13 in 9.0 mi Calm Calm - 0.46 in Rain Light Rain
1:53 AM 68.0 °F 66.0 °F 93% 30.11 in 10.0 mi Calm Calm - 0.46 in   Overcast
2:53 AM 68.0 °F 66.9 °F 96% 30.11 in 10.0 mi SE 3.5 mph - N/A   Overcast
3:53 AM 69.1 °F 66.9 °F 93% 30.10 in 8.0 mi South 4.6 mph - N/A   Scattered Clouds
4:22 AM 69.8 °F 68.0 °F 94% 30.13 in 1.8 mi SSW 5.8 mph - 0.08 in Rain Heavy Rain
4:33 AM 69.8 °F 68.0 °F 94% 30.13 in 2.0 mi South 8.1 mph - 0.17 in Rain Heavy Rain
4:42 AM 68.0 °F 66.2 °F 94% 30.13 in 10.0 mi South 5.8 mph - 0.17 in Rain Light Rain
4:53 AM 68.0 °F 66.0 °F 93% 30.11 in 10.0 mi South 4.6 mph - 0.17 in   Overcast
5:24 AM 69.8 °F 68.0 °F 94% 30.14 in 5.0 mi South 6.9 mph - 0.02 in Rain Light Rain
5:53 AM 69.1 °F 66.9 °F 93% 30.12 in 5.0 mi South 6.9 mph - 0.03 in Rain Light Rain
6:06 AM 69.8 °F 66.2 °F 88% 30.14 in 10.0 mi SSE 6.9 mph - 0.00 in   Overcast
6:53 AM 69.1 °F 66.9 °F 93% 30.14 in 10.0 mi South 5.8 mph - 0.00 in   Overcast
7:53 AM 69.1 °F 66.9 °F 93% 30.14 in 10.0 mi South 5.8 mph - N/A   Overcast
8:53 AM 70.0 °F 66.9 °F 90% 30.15 in 10.0 mi South 5.8 mph - N/A   Overcast
9:53 AM 70.0 °F 66.9 °F 90% 30.16 in 10.0 mi South 6.9 mph - 0.00 in Rain Light Rain
10:04 AM 69.8 °F 66.2 °F 88% 30.17 in 9.0 mi SSE 6.9 mph - 0.00 in Rain Light Rain
10:33 AM 69.8 °F 66.2 °F 88% 30.17 in 6.0 mi South 8.1 mph - 0.02 in Rain Light Rain
10:53 AM 70.0 °F 68.0 °F 93% 30.15 in 5.0 mi South 6.9 mph - 0.03 in Rain Light Rain
11:15 AM 69.8 °F 68.0 °F 94% 30.17 in 10.0 mi South 6.9 mph - 0.00 in Rain Light Rain
11:43 AM 69.8 °F 66.2 °F 88% 30.18 in 1.8 mi South 6.9 mph - 0.08 in Rain Heavy Rain
11:53 AM 68.0 °F 66.9 °F 96% 30.16 in 1.2 mi South 6.9 mph - 0.17 in Rain Rain
11:57 AM 68.0 °F 66.2 °F 94% 30.18 in 2.5 mi South 6.9 mph - 0.01 in Rain Rain
12:00 PM 68.0 °F 66.2 °F 94% 30.18 in 3.0 mi South 6.9 mph - 0.02 in Rain Rain
12:03 PM 68.0 °F 66.2 °F 94% 30.18 in 1.8 mi South 6.9 mph - 0.07 in Rain Rain
12:14 PM 68.0 °F 66.2 °F 94% 30.18 in 1.8 mi South 6.9 mph - 0.12 in Rain Rain
12:20 PM 68.0 °F 66.2 °F 94% 30.18 in 3.0 mi South 5.8 mph - 0.13 in Rain Rain
12:28 PM 68.0 °F 66.2 °F 94% 30.18 in 6.0 mi South 5.8 mph - 0.13 in Rain Light Rain
12:34 PM 69.8 °F 66.2 °F 88% 30.18 in 6.0 mi South 6.9 mph - 0.13 in Rain Light Rain
12:41 PM 69.8 °F 66.2 °F 88% 30.18 in 6.0 mi South 6.9 mph - 0.13 in Rain Light Rain
12:53 PM 69.1 °F 66.9 °F 93% 30.17 in 10.0 mi SSE 8.1 mph - 0.14 in Rain Light Rain
1:01 PM 69.8 °F 68.0 °F 94% 30.18 in 10.0 mi South 6.9 mph - 0.00 in   Overcast
1:14 PM 69.8 °F 68.0 °F 94% 30.18 in 7.0 mi South 8.1 mph - 0.00 in Rain Light Rain
1:23 PM 69.8 °F 68.0 °F 94% 30.18 in 6.0 mi South 6.9 mph - 0.01 in Rain Light Rain
1:53 PM 71.1 °F 68.0 °F 90% 30.16 in 6.0 mi SSE 8.1 mph - 0.02 in Rain Light Rain
2:08 PM 71.6 °F 68.0 °F 88% 30.17 in 7.0 mi South 9.2 mph - 0.00 in Rain Light Rain
2:15 PM 71.6 °F 69.8 °F 94% 30.17 in 7.0 mi South 10.4 mph - 0.01 in Rain Light Rain
2:53 PM 70.0 °F 68.0 °F 93% 30.15 in 4.0 mi SSW 8.1 mph - 0.04 in Rain Rain
3:04 PM 69.8 °F 68.0 °F 94% 30.16 in 4.0 mi South 6.9 mph - 0.02 in Rain Rain
3:53 PM 71.1 °F 68.0 °F 90% 30.14 in 6.0 mi SE 8.1 mph - 0.07 in Rain Light Rain
4:53 PM 70.0 °F 66.9 °F 90% 30.11 in 10.0 mi SE 6.9 mph - 0.06 in Rain Light Rain
5:53 PM 70.0 °F 68.0 °F 93% 30.10 in 10.0 mi SSE 5.8 mph - 0.04 in Rain Light Rain
6:14 PM 69.8 °F 68.0 °F 94% 30.10 in 10.0 mi Calm Calm - 0.00 in   Mostly Cloudy
6:19 PM 69.8 °F 66.2 °F 88% 30.11 in 10.0 mi Calm Calm - 0.00 in   Overcast
6:53 PM 70.0 °F 68.0 °F 93% 30.10 in 10.0 mi SE 3.5 mph - 0.00 in   Overcast
7:18 PM 71.6 °F 68.0 °F 88% 30.11 in 10.0 mi Calm Calm - N/A   Overcast
7:30 PM 71.6 °F 68.0 °F 88% 30.11 in 10.0 mi SE 3.5 mph - N/A   Overcast
7:37 PM 71.6 °F 68.0 °F 88% 30.11 in 10.0 mi South 4.6 mph - N/A   Overcast
7:53 PM 71.1 °F 68.0 °F 90% 30.09 in 10.0 mi Calm Calm - N/A   Mostly Cloudy
8:53 PM 70.0 °F 68.0 °F 93% 30.09 in 10.0 mi ESE 3.5 mph - N/A   Overcast
9:24 PM 69.8 °F 68.0 °F 94% 30.10 in 10.0 mi Variable 5.8 mph - N/A   Overcast
9:53 PM 70.0 °F 68.0 °F 93% 30.09 in 4.0 mi Calm Calm - 0.00 in Rain Light Rain
10:01 PM 69.8 °F 68.0 °F 94% 30.10 in 5.0 mi South 3.5 mph - 0.00 in Rain Light Rain
10:32 PM 69.8 °F 68.0 °F 94% 30.11 in 7.0 mi Calm Calm - 0.01 in   Mostly Cloudy
10:53 PM 70.0 °F 68.0 °F 93% 30.10 in 4.0 mi Calm Calm - 0.01 in Rain Light Rain
11:53 PM 69.1 °F 68.0 °F 96% 30.09 in 10.0 mi South 3.5 mph - 0.05 in Rain Light Rain